QPF
0.00 0.00 0.00 0.00 0.00 0.00 0.00 0.00 0.00 0.00 0.00 0.00 0.00 0.00 0.00 0.00 0.00 0.00 0.00 0.00 0.00 0.00 0.00 0.01 0.02 0.07 0.14 0.16 0.14 0.10 0.06 0.05 0.03 0.01 0.01 0.01 0.01 0.01 0.03 0.03 0.03 0.06 0.09 0.10
0.00 0.00 0.00 0.00 0.00 0.00 0.00 0.00 0.00 0.00 0.00 0.00 0.00 0.00 0.00 0.00 0.00 0.00 0.00 0.00 0.00 0.00 0.00 0.01 0.02 0.05 0.09 0.10 0.09 0.07 0.07 0.06 0.04 0.03 0.02 0.03 0.04 0.05 0.06 0.06 0.08 0.14 0.16 0.12
0.00 0.00 0.00 0.00 0.00 0.00 0.00 0.00 0.00 0.00 0.00 0.00 0.00 0.00 0.00 0.00 0.00 0.00 0.00 0.00 0.00 0.00 0.00 0.00 0.01 0.02 0.03 0.04 0.04 0.03 0.04 0.04 0.04 0.04 0.04 0.05 0.05 0.05 0.05 0.04 0.05 0.08 0.10 0.10
0.00 0.00 0.00 0.00 0.00 0.00 0.00 0.00 0.00 0.00 0.00 0.00 0.00 0.00 0.00 0.00 0.00 0.00 0.00 0.00 0.00 0.00 0.00 0.00 0.00 0.01 0.01 0.01 0.01 0.01 0.01 0.01 0.02 0.02 0.02 0.03 0.03 0.03 0.02 0.03 0.03 0.04 0.04 0.04
0.00 0.00 0.00 0.00 0.00 0.00 0.00 0.00 0.00 0.00 0.00 0.00 0.00 0.00 0.00 0.00 0.00 0.00 0.00 0.01 0.01 0.00 0.00 0.00 0.00 0.00 0.00 0.00 0.00 0.00 0.00 0.00 0.00 0.00 0.00 0.00 0.01 0.00 0.01 0.01 0.01 0.01 0.00 0.00
0.00 0.00 0.00 0.00 0.00 0.00 0.00 0.00 0.00 0.00 0.00 0.00 0.00 0.00 0.00 0.00 0.00 0.00 0.01 0.01 0.00 0.00 0.00 0.00 0.00 0.00 0.00 0.00 0.00 0.00 0.00 0.00 0.00 0.00 0.00 0.00 0.00 0.00 0.00 0.00 0.00 0.00 0.00 0.00
0.00 0.00 0.00 0.00 0.00 0.00 0.00 0.00 0.00 0.00 0.00 0.00 0.00 0.00 0.00 0.00 0.00 0.00 0.01 0.01 0.00 0.00 0.00 0.00 0.00 0.00 0.00 0.00 0.00 0.00 0.00 0.00 0.00 0.00 0.00 0.00 0.00 0.00 0.00 0.00 0.00 0.00 0.00 0.00
0.00 0.00 0.00 0.00 0.00 0.00 0.00 0.00 0.00 0.00 0.00 0.00 0.00 0.00 0.00 0.00 0.00 0.02 0.02 0.02 0.00 0.00 0.00 0.00 0.00 0.00 0.00 0.00 0.00 0.00 0.00 0.00 0.00 0.00 0.00 0.00 0.00 0.00 0.00 0.00 0.00 0.00 0.00 0.00
0.00 0.00 0.00 0.00 0.00 0.00 0.00 0.00 0.00 0.00 0.00 0.00 0.00 0.00 0.00 0.00 0.01 0.04 0.04 0.03 0.01 0.00 0.00 0.00 0.00 0.00 0.00 0.00 0.00 0.00 0.00 0.00 0.00 0.00 0.00 0.00 0.00 0.00 0.00 0.00 0.00 0.00 0.00 0.00
0.00 0.00 0.00 0.00 0.00 0.00 0.00 0.00 0.00 0.00 0.00 0.00 0.00 0.00 0.00 0.00 0.01 0.02 0.04 0.02 0.01 0.01 0.01 0.00 0.00 0.00 0.00 0.00 0.00 0.00 0.00 0.00 0.00 0.00 0.00 0.00 0.00 0.00 0.00 0.00 0.00 0.00 0.00 0.00
0.00 0.00 0.00 0.00 0.00 0.00 0.00 0.00 0.00 0.00 0.00 0.00 0.00 0.00 0.00 0.00 0.01 0.02 0.03 0.03 0.02 0.01 0.01 0.00 0.00 0.00 0.00 0.00 0.00 0.00 0.00 0.00 0.00 0.00 0.00 0.00 0.00 0.00 0.00 0.00 0.00 0.00 0.00 0.00
0.00 0.00 0.00 0.00 0.00 0.00 0.00 0.00 0.00 0.00 0.00 0.00 0.00 0.00 0.00 0.00 0.01 0.04 0.05 0.04 0.02 0.01 0.01 0.00 0.00 0.00 0.00 0.00 0.00 0.00 0.00 0.00 0.00 0.00 0.00 0.00 0.00 0.00 0.00 0.00 0.00 0.00 0.00 0.00
0.00 0.00 0.00 0.00 0.00 0.00 0.00 0.00 0.00 0.00 0.00 0.00 0.00 0.00 0.00 0.01 0.04 0.07 0.09 0.05 0.02 0.01 0.01 0.00 0.00 0.00 0.00 0.00 0.00 0.00 0.00 0.00 0.00 0.00 0.00 0.00 0.00 0.00 0.00 0.00 0.00 0.00 0.00 0.00
0.00 0.00 0.00 0.00 0.00 0.00 0.00 0.00 0.01 0.01 0.00 0.01 0.01 0.02 0.04 0.10 0.15 0.14 0.12 0.07 0.04 0.02 0.01 0.01 0.00 0.00 0.00 0.00 0.00 0.00 0.00 0.00 0.00 0.00 0.00 0.00 0.00 0.00 0.00 0.00 0.00 0.00 0.00 0.00
0.00 0.00 0.00 0.00 0.00 0.00 0.01 0.01 0.01 0.02 0.02 0.02 0.02 0.05 0.10 0.19 0.25 0.22 0.16 0.10 0.07 0.04 0.03 0.01 0.00 0.00 0.00 0.00 0.00 0.00 0.00 0.00 0.00 0.00 0.00 0.00 0.00 0.00 0.00 0.00 0.00 0.00 0.00 0.00
0.00 0.00 0.00 0.00 0.00 0.00 0.00 0.01 0.01 0.01 0.02 0.02 0.04 0.08 0.14 0.19 0.20 0.18 0.14 0.11 0.10 0.07 0.03 0.01 0.00 0.00 0.00 0.00 0.00 0.00 0.00 0.00 0.00 0.00 0.00 0.00 0.00 0.00 0.00 0.00 0.00 0.00 0.00 0.00
0.00 0.00 0.00 0.00 0.00 0.00 0.00 0.00 0.00 0.01 0.01 0.01 0.04 0.08 0.09 0.12 0.13 0.13 0.11 0.10 0.09 0.05 0.01 0.00 0.00 0.00 0.00 0.00 0.00 0.00 0.00 0.00 0.00 0.00 0.00 0.00 0.00 0.00 0.00 0.00 0.00 0.00 0.00 0.00
0.00 0.00 0.01 0.01 0.01 0.00 0.00 0.00 0.00 0.01 0.01 0.01 0.01 0.01 0.02 0.04 0.05 0.06 0.06 0.05 0.03 0.01 0.00 0.00 0.00 0.00 0.00 0.00 0.00 0.00 0.00 0.00 0.00 0.00 0.00 0.00 0.00 0.00 0.00 0.00 0.00 0.00 0.00 0.00
0.00 0.01 0.03 0.03 0.02 0.01 0.00 0.00 0.00 0.01 0.01 0.01 0.02 0.02 0.02 0.02 0.03 0.03 0.02 0.02 0.01 0.00 0.00 0.00 0.00 0.00 0.00 0.00 0.00 0.00 0.00 0.00 0.00 0.00 0.00 0.00 0.00 0.00 0.00 0.00 0.00 0.00 0.00 0.00
0.00 0.00 0.03 0.04 0.05 0.04 0.01 0.01 0.01 0.01 0.03 0.02 0.02 0.02 0.02 0.02 0.04 0.03 0.02 0.01 0.00 0.00 0.00 0.00 0.00 0.00 0.00 0.00 0.00 0.00 0.00 0.00 0.00 0.00 0.00 0.00 0.00 0.00 0.00 0.00 0.00 0.00 0.00 0.00
0.01 0.02 0.03 0.04 0.08 0.10 0.06 0.04 0.03 0.04 0.05 0.07 0.05 0.04 0.05 0.06 0.05 0.03 0.01 0.00 0.00 0.00 0.00 0.00 0.00 0.00 0.00 0.00 0.00 0.00 0.00 0.00 0.00 0.00 0.00 0.00 0.00 0.00 0.00 0.00 0.00 0.00 0.00 0.00
0.02 0.04 0.05 0.06 0.10 0.13 0.08 0.07 0.09 0.10 0.09 0.11 0.08 0.07 0.06 0.05 0.03 0.01 0.00 0.00 0.00 0.00 0.00 0.00 0.00 0.00 0.00 0.00 0.00 0.00 0.00 0.00 0.00 0.00 0.00 0.00 0.00 0.00 0.00 0.00 0.00 0.00 0.00 0.00
0.05 0.07 0.08 0.11 0.12 0.09 0.07 0.06 0.06 0.08 0.10 0.09 0.08 0.07 0.04 0.02 0.01 0.00 0.00 0.00 0.00 0.00 0.00 0.00 0.00 0.00 0.00 0.00 0.00 0.00 0.00 0.00 0.00 0.00 0.00 0.00 0.00 0.00 0.00 0.00 0.00 0.00 0.00 0.00
0.15 0.19 0.18 0.16 0.15 0.12 0.09 0.07 0.05 0.05 0.07 0.08 0.08 0.06 0.03 0.01 0.00 0.00 0.00 0.00 0.00 0.00 0.00 0.00 0.00 0.00 0.00 0.00 0.00 0.00 0.00 0.00 0.00 0.00 0.00 0.00 0.00 0.00 0.00 0.00 0.00 0.00 0.00 0.00
0.15 0.34 0.40 0.35 0.29 0.20 0.08 0.05 0.05 0.04 0.05 0.05 0.03 0.01 0.00 0.00 0.00 0.00 0.00 0.00 0.00 0.00 0.00 0.00 0.00 0.00 0.00 0.00 0.00 0.00 0.00 0.00 0.00 0.00 0.00 0.00 0.00 0.00 0.00 0.00 0.00 0.00 0.00 0.00
0.07 0.25 0.50 0.55 0.36 0.22 0.08 0.03 0.02 0.02 0.01 0.01 0.00 0.00 0.00 0.00 0.00 0.00 0.00 0.00 0.00 0.00 0.00 0.00 0.00 0.00 0.00 0.00 0.00 0.00 0.00 0.00 0.00 0.00 0.00 0.00 0.00 0.00 0.00 0.00 0.00 0.00 0.00 0.00
MSLP
1012.47 1013.37 1014.03 1014.40 1014.50 1014.38 1014.11 1013.75 1013.38 1013.04 1012.75 1012.51 1012.32 1012.17 1012.09 1012.06 1012.12 1012.28 1012.55 1012.94 1013.41 1013.93 1014.45 1014.91 1015.28 1015.52 1015.65 1015.68 1015.65 1015.62 1015.63 1015.72 1015.90 1016.16 1016.48 1016.83 1017.16 1017.43 1017.63 1017.75 1017.80 1017.79 1017.75 1017.70
1012.88 1013.64 1014.13 1014.35 1014.35 1014.19 1013.95 1013.70 1013.49 1013.33 1013.21 1013.12 1013.03 1012.93 1012.82 1012.74 1012.72 1012.80 1013.01 1013.35 1013.80 1014.33 1014.86 1015.34 1015.72 1015.97 1016.10 1016.12 1016.09 1016.07 1016.11 1016.24 1016.47 1016.79 1017.17 1017.55 1017.89 1018.16 1018.33 1018.40 1018.39 1018.32 1018.23 1018.13
1012.94 1013.54 1013.87 1013.96 1013.89 1013.73 1013.58 1013.49 1013.47 1013.52 1013.60 1013.66 1013.66 1013.59 1013.46 1013.31 1013.19 1013.18 1013.30 1013.59 1014.02 1014.56 1015.12 1015.65 1016.08 1016.38 1016.54 1016.60 1016.60 1016.61 1016.68 1016.84 1017.12 1017.48 1017.89 1018.30 1018.65 1018.90 1019.03 1019.05 1018.99 1018.86 1018.71 1018.57
1012.62 1013.04 1013.22 1013.22 1013.12 1013.03 1013.02 1013.13 1013.36 1013.65 1013.94 1014.16 1014.25 1014.20 1014.02 1013.78 1013.55 1013.43 1013.46 1013.69 1014.10 1014.65 1015.26 1015.86 1016.36 1016.74 1016.97 1017.09 1017.13 1017.18 1017.28 1017.48 1017.78 1018.17 1018.59 1019.00 1019.34 1019.57 1019.68 1019.66 1019.55 1019.37 1019.18 1018.99
1011.97 1012.22 1012.27 1012.20 1012.13 1012.16 1012.34 1012.69 1013.18 1013.73 1014.24 1014.61 1014.79 1014.75 1014.53 1014.19 1013.84 1013.59 1013.52 1013.69 1014.07 1014.64 1015.31 1015.99 1016.59 1017.05 1017.37 1017.56 1017.67 1017.75 1017.88 1018.09 1018.40 1018.78 1019.20 1019.60 1019.93 1020.15 1020.23 1020.18 1020.03 1019.82 1019.59 1019.37
1011.12 1011.20 1011.14 1011.05 1011.05 1011.21 1011.61 1012.22 1012.98 1013.78 1014.49 1015.01 1015.26 1015.23 1014.95 1014.51 1014.05 1013.69 1013.53 1013.63 1013.99 1014.58 1015.30 1016.06 1016.76 1017.33 1017.74 1018.01 1018.17 1018.29 1018.43 1018.64 1018.93 1019.30 1019.70 1020.08 1020.38 1020.58 1020.64 1020.58 1020.41 1020.18 1019.92 1019.68
1010.26 1010.18 1010.03 1009.93 1010.00 1010.32 1010.92 1011.77 1012.76 1013.77 1014.66 1015.29 1015.60 1015.56 1015.23 1014.72 1014.16 1013.70 1013.47 1013.52 1013.88 1014.49 1015.27 1016.10 1016.89 1017.56 1018.06 1018.40 1018.62 1018.77 1018.92 1019.11 1019.38 1019.71 1020.07 1020.41 1020.69 1020.87 1020.92 1020.84 1020.66 1020.41 1020.15 1019.89
1009.55 1009.32 1009.10 1009.01 1009.15 1009.59 1010.35 1011.37 1012.53 1013.68 1014.68 1015.38 1015.72 1015.68 1015.32 1014.75 1014.14 1013.63 1013.36 1013.39 1013.75 1014.39 1015.22 1016.13 1017.00 1017.76 1018.34 1018.75 1019.01 1019.19 1019.34 1019.51 1019.74 1020.02 1020.33 1020.63 1020.87 1021.02 1021.05 1020.96 1020.78 1020.53 1020.25 1019.98
1009.13 1008.79 1008.52 1008.42 1008.60 1009.11 1009.94 1011.04 1012.27 1013.48 1014.51 1015.23 1015.57 1015.52 1015.15 1014.57 1013.95 1013.45 1013.19 1013.24 1013.62 1014.30 1015.18 1016.15 1017.10 1017.92 1018.58 1019.05 1019.36 1019.55 1019.70 1019.85 1020.04 1020.26 1020.52 1020.76 1020.95 1021.06 1021.07 1020.97 1020.77 1020.52 1020.23 1019.96
1009.07 1008.66 1008.34 1008.23 1008.40 1008.91 1009.73 1010.80 1011.99 1013.14 1014.12 1014.80 1015.12 1015.07 1014.72 1014.19 1013.62 1013.18 1012.98 1013.09 1013.53 1014.25 1015.19 1016.21 1017.20 1018.09 1018.80 1019.32 1019.67 1019.89 1020.04 1020.16 1020.31 1020.48 1020.66 1020.83 1020.97 1021.02 1020.99 1020.86 1020.65 1020.39 1020.10 1019.83
1009.35 1008.92 1008.59 1008.44 1008.57 1008.99 1009.70 1010.63 1011.66 1012.67 1013.52 1014.11 1014.39 1014.35 1014.06 1013.63 1013.19 1012.88 1012.80 1013.01 1013.52 1014.30 1015.27 1016.33 1017.35 1018.27 1019.02 1019.58 1019.96 1020.21 1020.36 1020.47 1020.57 1020.67 1020.78 1020.88 1020.93 1020.92 1020.83 1020.66 1020.43 1020.15 1019.87 1019.60
1009.91 1009.50 1009.16 1008.98 1009.02 1009.30 1009.82 1010.52 1011.32 1012.10 1012.77 1013.24 1013.47 1013.47 1013.29 1013.01 1012.75 1012.62 1012.70 1013.04 1013.65 1014.49 1015.49 1016.55 1017.58 1018.50 1019.26 1019.85 1020.25 1020.51 1020.66 1020.75 1020.81 1020.85 1020.88 1020.89 1020.85 1020.76 1020.61 1020.39 1020.13 1019.85 1019.57 1019.31
1010.62 1010.27 1009.96 1009.74 1009.66 1009.76 1010.03 1010.45 1010.96 1011.48 1011.94 1012.29 1012.49 1012.56 1012.51 1012.44 1012.40 1012.49 1012.77 1013.25 1013.96 1014.84 1015.84 1016.89 1017.89 1018.79 1019.54 1020.12 1020.53 1020.80 1020.95 1021.01 1021.02 1020.99 1020.94 1020.85 1020.72 1020.54 1020.32 1020.07 1019.78 1019.50 1019.23 1018.99
1011.39 1011.13 1010.85 1010.58 1010.38 1010.28 1010.29 1010.40 1010.61 1010.86 1011.12 1011.36 1011.56 1011.71 1011.85 1012.00 1012.22 1012.55 1013.03 1013.67 1014.46 1015.37 1016.35 1017.34 1018.28 1019.13 1019.83 1020.39 1020.78 1021.04 1021.17 1021.20 1021.16 1021.07 1020.92 1020.74 1020.52 1020.26 1019.98 1019.69 1019.40 1019.12 1018.88 1018.68
1012.13 1011.97 1011.71 1011.40 1011.08 1010.77 1010.53 1010.36 1010.28 1010.29 1010.38 1010.54 1010.76 1011.04 1011.37 1011.77 1012.25 1012.82 1013.50 1014.27 1015.12 1016.03 1016.96 1017.88 1018.73 1019.48 1020.12 1020.62 1020.98 1021.20 1021.30 1021.30 1021.21 1021.04 1020.81 1020.54 1020.24 1019.92 1019.60 1019.29 1019.00 1018.75 1018.55 1018.40
1012.82 1012.71 1012.48 1012.12 1011.68 1011.19 1010.71 1010.30 1009.98 1009.80 1009.77 1009.89 1010.17 1010.58 1011.11 1011.75 1012.48 1013.27 1014.11 1014.99 1015.88 1016.77 1017.63 1018.44 1019.17 1019.82 1020.36 1020.79 1021.09 1021.27 1021.33 1021.28 1021.13 1020.90 1020.60 1020.26 1019.90 1019.54 1019.19 1018.89 1018.63 1018.43 1018.29 1018.20
1013.42 1013.35 1013.10 1012.69 1012.13 1011.49 1010.83 1010.22 1009.73 1009.41 1009.30 1009.42 1009.77 1010.33 1011.05 1011.91 1012.85 1013.82 1014.80 1015.75 1016.65 1017.49 1018.26 1018.95 1019.57 1020.09 1020.53 1020.87 1021.10 1021.23 1021.24 1021.14 1020.94 1020.66 1020.31 1019.92 1019.53 1019.14 1018.81 1018.53 1018.32 1018.19 1018.11 1018.09
1013.95 1013.86 1013.57 1013.08 1012.43 1011.67 1010.87 1010.13 1009.52 1009.13 1008.99 1009.14 1009.57 1010.25 1011.14 1012.17 1013.28 1014.39 1015.46 1016.45 1017.34 1018.12 1018.79 1019.37 1019.86 1020.27 1020.60 1020.86 1021.02 1021.09 1021.06 1020.91 1020.68 1020.36 1019.98 1019.57 1019.17 1018.80 1018.50 1018.27 1018.13 1018.07 1018.07 1018.10
1014.40 1014.25 1013.89 1013.33 1012.59 1011.74 1010.86 1010.04 1009.37 1008.95 1008.82 1009.02 1009.53 1010.32 1011.33 1012.48 1013.69 1014.89 1016.01 1017.00 1017.86 1018.58 1019.17 1019.65 1020.03 1020.35 1020.59 1020.77 1020.88 1020.90 1020.83 1020.66 1020.40 1020.06 1019.68 1019.28 1018.90 1018.57 1018.32 1018.17 1018.10 1018.11 1018.17 1018.25
1014.77 1014.51 1014.07 1013.43 1012.63 1011.73 1010.81 1009.97 1009.30 1008.90 1008.80 1009.05 1009.63 1010.49 1011.58 1012.80 1014.06 1015.29 1016.41 1017.40 1018.22 1018.88 1019.40 1019.80 1020.11 1020.35 1020.53 1020.66 1020.72 1020.71 1020.61 1020.42 1020.16 1019.83 1019.47 1019.10 1018.77 1018.50 1018.33 1018.24 1018.25 1018.32 1018.43 1018.54
1015.01 1014.65 1014.12 1013.42 1012.58 1011.67 1010.77 1009.95 1009.33 1008.98 1008.94 1009.24 1009.86 1010.77 1011.88 1013.12 1014.39 1015.60 1016.71 1017.65 1018.43 1019.04 1019.51 1019.85 1020.11 1020.31 1020.45 1020.54 1020.58 1020.55 1020.45 1020.27 1020.02 1019.72 1019.40 1019.09 1018.82 1018.63 1018.53 1018.52 1018.58 1018.70 1018.83 1018.95
1015.11 1014.64 1014.04 1013.31 1012.48 1011.61 1010.76 1010.03 1009.49 1009.22 1009.25 1009.61 1010.26 1011.18 1012.28 1013.49 1014.72 1015.89 1016.94 1017.83 1018.56 1019.13 1019.55 1019.86 1020.09 1020.26 1020.38 1020.46 1020.49 1020.46 1020.37 1020.21 1020.00 1019.75 1019.49 1019.25 1019.06 1018.95 1018.92 1018.97 1019.08 1019.22 1019.35 1019.44
1015.02 1014.49 1013.86 1013.13 1012.35 1011.57 1010.83 1010.22 1009.81 1009.65 1009.76 1010.17 1010.85 1011.75 1012.81 1013.96 1015.11 1016.21 1017.18 1018.01 1018.69 1019.21 1019.60 1019.89 1020.10 1020.25 1020.36 1020.43 1020.46 1020.45 1020.37 1020.25 1020.09 1019.91 1019.73 1019.57 1019.47 1019.43 1019.46 1019.56 1019.68 1019.82 1019.92 1019.96
1014.77 1014.21 1013.58 1012.92 1012.24 1011.58 1011.00 1010.56 1010.30 1010.26 1010.48 1010.94 1011.63 1012.51 1013.51 1014.58 1015.64 1016.63 1017.51 1018.26 1018.87 1019.34 1019.70 1019.96 1020.15 1020.29 1020.39 1020.46 1020.49 1020.49 1020.45 1020.38 1020.28 1020.17 1020.08 1020.01 1019.99 1020.02 1020.11 1020.22 1020.35 1020.45 1020.50 1020.46
1014.39 1013.83 1013.27 1012.70 1012.16 1011.68 1011.29 1011.03 1010.95 1011.06 1011.38 1011.91 1012.61 1013.45 1014.38 1015.36 1016.30 1017.19 1017.97 1018.62 1019.15 1019.56 1019.87 1020.09 1020.25 1020.37 1020.46 1020.52 1020.56 1020.58 1020.57 1020.55 1020.53 1020.50 1020.50 1020.52 1020.58 1020.67 1020.78 1020.90 1021.00 1021.05 1021.02 1020.90
1013.94 1013.44 1012.97 1012.53 1012.16 1011.87 1011.69 1011.64 1011.74 1012.01 1012.44 1013.02 1013.73 1014.54 1015.40 1016.27 1017.10 1017.86 1018.53 1019.08 1019.52 1019.85 1020.10 1020.27 1020.39 1020.48 1020.54 1020.60 1020.64 1020.68 1020.71 1020.75 1020.80 1020.86 1020.95 1021.05 1021.18 1021.32 1021.45 1021.55 1021.60 1021.58 1021.46 1021.23
Thickness
5749 5731 5724 5732 5737 5737 5737 5733 5733 5751 5769 5761 5756 5757 5762 5767 5768 5760 5755 5753 5747 5742 5739 5736 5732 5728 5723 5718 5713 5708 5704 5700 5697 5692 5684 5677 5669 5664 5660 5655 5651 5647 5643 5640
5725 5718 5736 5740 5740 5738 5733 5725 5729 5746 5763 5759 5748 5747 5753 5761 5760 5758 5754 5749 5745 5739 5734 5729 5723 5718 5713 5708 5703 5699 5694 5689 5686 5680 5674 5666 5659 5652 5647 5642 5638 5634 5630 5627
5710 5726 5740 5734 5729 5728 5727 5723 5727 5734 5751 5754 5744 5732 5737 5743 5746 5745 5745 5744 5741 5737 5730 5723 5716 5710 5705 5699 5695 5689 5684 5679 5674 5670 5664 5656 5648 5641 5635 5630 5624 5620 5617 5613
5714 5730 5732 5728 5727 5728 5718 5740 5739 5739 5733 5721 5733 5701 5716 5720 5723 5727 5730 5731 5730 5727 5723 5717 5709 5702 5697 5691 5686 5679 5673 5668 5662 5658 5652 5644 5635 5627 5621 5616 5611 5607 5602 5597
5714 5728 5724 5720 5730 5734 5729 5748 5743 5740 5732 5719 5720 5699 5700 5707 5705 5711 5716 5719 5718 5716 5713 5708 5701 5695 5689 5684 5676 5668 5661 5655 5649 5644 5638 5631 5623 5616 5609 5604 5598 5593 5588 5583
5722 5736 5731 5730 5741 5743 5743 5740 5736 5723 5707 5693 5710 5699 5693 5704 5712 5711 5710 5709 5708 5705 5702 5697 5692 5686 5680 5674 5666 5657 5649 5642 5637 5632 5625 5618 5610 5602 5596 5589 5583 5578 5573 5568
5709 5722 5735 5740 5728 5735 5733 5710 5685 5684 5672 5677 5708 5703 5700 5719 5723 5717 5709 5704 5701 5698 5693 5688 5681 5674 5668 5662 5654 5645 5639 5631 5625 5619 5612 5605 5598 5590 5583 5576 5570 5564 5558 5553
5686 5695 5724 5735 5730 5723 5722 5707 5680 5665 5662 5675 5696 5692 5700 5724 5720 5711 5704 5699 5694 5689 5685 5679 5672 5665 5658 5652 5644 5635 5628 5621 5615 5609 5601 5594 5588 5580 5573 5566 5559 5551 5545 5539
5689 5698 5733 5740 5744 5735 5718 5708 5710 5689 5677 5669 5675 5688 5694 5706 5702 5699 5695 5692 5687 5683 5678 5672 5664 5657 5651 5642 5634 5626 5619 5612 5606 5599 5591 5583 5577 5569 5561 5553 5546 5538 5531 5526
5701 5693 5719 5735 5740 5738 5728 5721 5692 5676 5661 5654 5667 5670 5676 5685 5690 5692 5688 5684 5680 5676 5670 5664 5656 5648 5640 5632 5623 5615 5608 5602 5595 5588 5581 5572 5564 5556 5548 5540 5532 5524 5518 5513
5701 5683 5696 5713 5714 5713 5721 5715 5701 5682 5676 5662 5648 5665 5703 5702 5700 5693 5685 5679 5673 5668 5661 5654 5646 5637 5628 5618 5610 5602 5596 5590 5583 5575 5568 5560 5552 5544 5535 5527 5519 5512 5507 5504
5687 5675 5672 5691 5714 5726 5720 5713 5702 5680 5673 5668 5659 5671 5715 5712 5700 5689 5680 5674 5667 5660 5652 5644 5634 5624 5613 5604 5597 5591 5585 5579 5572 5564 5557 5549 5541 5532 5524 5516 5509 5504 5500 5499
5678 5662 5649 5664 5684 5702 5704 5705 5701 5690 5676 5661 5654 5666 5698 5699 5686 5679 5672 5666 5659 5649 5641 5632 5622 5611 5601 5593 5587 5581 5575 5568 5561 5554 5545 5537 5530 5522 5515 5508 5503 5500 5496 5494
5673 5655 5645 5645 5659 5677 5681 5689 5692 5680 5663 5661 5665 5667 5670 5670 5665 5660 5656 5650 5644 5636 5628 5618 5606 5596 5589 5583 5578 5571 5564 5557 5551 5543 5534 5527 5520 5514 5507 5503 5499 5496 5492 5488
5645 5638 5645 5651 5664 5674 5678 5682 5684 5677 5671 5661 5664 5663 5662 5660 5654 5646 5641 5635 5627 5618 5611 5601 5589 5581 5576 5571 5566 5560 5554 5547 5539 5531 5524 5517 5512 5507 5502 5498 5495 5491 5487 5483
5622 5620 5625 5634 5652 5656 5663 5676 5679 5675 5672 5667 5662 5655 5662 5656 5644 5634 5629 5624 5614 5603 5595 5586 5579 5573 5566 5561 5555 5549 5542 5534 5527 5520 5515 5510 5506 5501 5497 5493 5490 5485 5480 5474
5603 5602 5600 5604 5626 5633 5633 5659 5668 5669 5672 5665 5653 5653 5653 5648 5644 5636 5627 5618 5607 5596 5584 5575 5568 5561 5555 5549 5544 5537 5530 5523 5517 5512 5509 5505 5502 5497 5493 5489 5484 5478 5471 5464
5594 5591 5584 5588 5604 5597 5626 5653 5660 5661 5665 5666 5660 5655 5653 5646 5634 5625 5620 5612 5600 5587 5575 5566 5557 5551 5545 5539 5533 5527 5520 5514 5510 5506 5504 5501 5498 5494 5489 5484 5477 5470 5462 5454
5587 5581 5574 5574 5578 5591 5620 5636 5635 5639 5643 5654 5649 5641 5631 5624 5613 5600 5600 5595 5585 5572 5563 5555 5548 5542 5535 5530 5524 5518 5511 5507 5505 5502 5500 5498 5494 5490 5485 5479 5471 5463 5453 5443
5573 5571 5565 5565 5566 5573 5604 5620 5628 5627 5619 5637 5637 5628 5621 5620 5600 5582 5581 5576 5567 5558 5551 5545 5539 5534 5527 5521 5516 5509 5504 5501 5499 5499 5497 5495 5491 5486 5480 5473 5464 5453 5442 5430
5548 5548 5550 5551 5552 5573 5600 5607 5615 5600 5606 5619 5619 5615 5611 5605 5597 5577 5568 5560 5553 5547 5542 5538 5532 5524 5519 5514 5509 5502 5499 5497 5497 5496 5494 5490 5485 5479 5473 5463 5452 5440 5427 5415
5534 5533 5539 5542 5546 5561 5589 5593 5593 5595 5602 5603 5595 5590 5588 5584 5572 5562 5554 5547 5543 5539 5535 5530 5521 5515 5511 5507 5502 5498 5495 5495 5493 5492 5487 5482 5477 5471 5462 5449 5437 5425 5413 5401
5525 5529 5530 5534 5547 5561 5568 5574 5582 5589 5590 5586 5580 5574 5573 5567 5558 5549 5542 5538 5536 5532 5527 5520 5513 5508 5505 5502 5497 5494 5493 5492 5489 5486 5479 5473 5466 5456 5447 5435 5423 5411 5400 5390
5525 5525 5521 5529 5546 5554 5561 5565 5569 5577 5577 5573 5570 5563 5561 5554 5545 5539 5535 5530 5526 5522 5518 5513 5508 5504 5501 5498 5496 5493 5491 5489 5484 5478 5471 5464 5453 5442 5434 5424 5414 5402 5392 5382
5522 5524 5522 5528 5538 5548 5554 5559 5562 5565 5563 5560 5557 5554 5550 5545 5536 5530 5525 5521 5518 5515 5511 5507 5504 5500 5497 5495 5493 5492 5488 5484 5477 5470 5462 5453 5443 5433 5423 5414 5404 5395 5386 5378
5524 5523 5520 5523 5533 5538 5543 5551 5558 5558 5553 5550 5546 5539 5536 5534 5526 5520 5515 5512 5510 5507 5505 5503 5500 5496 5492 5490 5489 5487 5483 5478 5470 5461 5452 5444 5435 5425 5415 5405 5396 5389 5381 5374